Regional Weather Roundup
Issued by NWS

Home | Current Version | Previous Version | Text Only | Print | Product List | Glossary On
Versions: 1 2 3 4 5 6 7 8 9 10 11 12 13 14 15 16 17 18 19 20 21 22 23 24 25 26 27 28
000
ASUS45 KTFX 131210
RWRMT
MONTANA REGIONAL WEATHER ROUNDUP
NATIONAL WEATHER SERVICE GREAT FALLS MT
500 AM MST WED DEC 13 2017

NOTE: "FAIR" INDICATES FEW OR NO CLOUDS BELOW 12000 FEET WITH NO
SIGNIFICANT WEATHER AND/OR OBSTRUCTIONS TO VISIBILITY.

MTZ001>007-043-131300-
WEST OF THE DIVIDE

CITY           SKY/WX    TMP DP  RH WIND       PRES   REMARKS
KALISPELL      CLOUDY    22  21  96 NW3       30.39S
MISSOULA       CLOUDY    20  17  88 W5        30.35F
BUTTE          CLOUDY    27  20  75 CALM      30.26F
MULLAN PASS    MOCLDY    26  12  55 NW5       30.26F
ANACONDA         N/A     27  16  63 CALM      30.26F
DEER LODGE       N/A     25  19  80 W3        30.29F
EUREKA           N/A     21  19  93 MISG      30.44S
HAMILTON         N/A     21  19  93 SE3       30.33F
LIBBY            N/A     25  21  86 CALM      30.41S
RONAN            N/A     24  21  88 CALM      30.37F
$$

MTZ008-052>055-131300-
SOUTHWEST MONTANA

CITY           SKY/WX    TMP DP  RH WIND       PRES   REMARKS
BOZEMAN        FAIR      13   9  84 E5        30.26S
DILLON         CLOUDY    32  18  56 S5        30.24S
W YELLOWSTONE  FAIR       7   5  92 CALM      30.30S
ENNIS          CLOUDY    28  18  64 S8        30.30S WCI  20
THREE FORKS      N/A     10   6  84 CALM      30.21F
TWIN BRIDGES     N/A     29  16  58 CALM      30.20S
$$

MTZ009-010-012-014-046-048-049-054-131300-
EAST SLOPES AND CENTRAL MONTANA

CITY           SKY/WX    TMP DP  RH WIND       PRES   REMARKS
CUT BANK       FAIR      20  11  68 N3        30.21F
GREAT FALLS    FAIR      24  13  62 SW9       30.24S WCI  14
MALMSTROM AFB  FAIR      27  14  58 W5        30.24S
HELENA         FAIR      20  16  84 CALM      30.26S
BOWMANS CRNR   FAIR      33   8  33 CALM      30.20F
CHOTEAU          N/A     28  12  50 SW3       30.24S
FAIRFIELD      FAIR      26  13  57 CALM      30.22S
POWER          FAIR      24  11  58 CALM      30.21F
RAYNESFORD     FAIR      26  15  61 CALM      30.23S
ULM            FAIR      26  16  65 E3        30.23F
$$

MTZ011-013-016-021-045-047-050-051-131300-
NORTH CENTRAL MONTANA

CITY           SKY/WX    TMP DP  RH WIND       PRES   REMARKS
HAVRE          FAIR      28  19  69 SW13      30.21S WCI  17
LEWISTOWN      FAIR      28  18  66 W13       30.21S WCI  17
N BAR RANCH    FAIR      36  16  44 NW16G22   30.19S WCI  26
CHINOOK          N/A     28  21  74 W7        30.19R WCI  21
DENTON         MOCLDY    31  19  61 W12       30.18S WCI  22
GEYSER         MOCLDY    32  14  48 SW14      30.21S WCI  22
GRASS RANGE    FAIR      35  17  48 W20G29    30.15R WCI  24
STANFORD       FAIR      31  17  55 NW9       30.20S WCI  23
WINIFRED       FAIR      31  19  59 W8        30.19S WCI  24
$$

MTZ017>020-022>027-061-062-131300-
NORTHEAST MONTANA

CITY           SKY/WX    TMP DP  RH WIND       PRES   REMARKS
GLASGOW        FAIR      32  24  72 NW15      30.10R WCI  22
GLENDIVE       FAIR      34  25  69 NW18G26   30.05R WCI  23
JORDAN           N/A     33  22  63 NW15      30.13R WCI  23
SIDNEY         FAIR      34  26  72 NW20      29.99R WCI  23
WOLF POINT     FAIR      34  25  69 W13       30.07R WCI  25
MALTA          CLEAR     32  21  64 NW16      30.15S WCI  21
PLENTYWOOD       N/A     32  27  80 NW17G23   29.97R WCI  21
POPLAR           N/A     32  25  74 W12G17    30.05R WCI  23
$$

MTZ028>42-056>058-131300-
SOUTHCENTRAL AND SOUTHEAST MONTANA

CITY           SKY/WX    TMP DP  RH WIND       PRES   REMARKS
BAKER          FAIR      33  26  75 NW20G26   30.03R WCI  21
BILLINGS       FAIR      36  15  42 W8        30.19R WCI  30
LIVINGSTON     FAIR      29  14  53 NW9       30.22S WCI  20
MILES CITY     FAIR      36  20  52 NW10      30.11R WCI  28
BIG TIMBER     CLEAR     36   9  32 W12G20    30.20S WCI  27
FORSYTH          N/A     37  16  41 W10       30.15R WCI  30
LAUREL           N/A     36  12  38 CALM      30.20S
$$

REGIONAL REPORTS...DAKOTAS

CITY           SKY/WX    TMP DP  RH WIND       PRES   REMARKS
WILLISTON      FAIR      34  27  75 NW23G32   29.95R WCI  22
MINOT          FAIR      34  28  79 NW25G33   29.80R WCI  21
DICKINSON      FAIR      32  26  78 NW22      29.89R WCI  19
BEACH          FAIR      32  25  74 NW20      30.02R WCI  20
CROSBY         FAIR      32  30  93 NW21G30   29.91R WCI  20
TIOGA          FAIR      32  32 100 NW24      29.90R WCI  19
WATFORD CITY   FAIR      34  28  80 NW21G28   29.93R WCI  22
BISMARCK       FAIR      37  30  75 NW25G33   29.81R WCI  25
GRAND FORKS    FLURRIES  28  25  88 N31G45    29.64R WCI  12
FARGO          CLOUDY    31  28  89 N26G38    29.60R WCI  17
BUFFALO SD       N/A     36  24  62 NW25G38   29.92R WCI  24
RAPID CITY     FAIR      44  16  32 NW38G51   29.94R
$$

REGIONAL REPORTS...WYOMING/IDAHO/WASHINGTON

CITY           SKY/WX    TMP DP  RH WIND       PRES   REMARKS
GILLETTE       FAIR      34  13  41 NW16      30.13R WCI  24
SHERIDAN       FAIR      39  15  37 NW12      30.16S WCI  32
BUFFALO WY     FAIR      40   9  28 N14       30.14S
CODY           FAIR      27  10  49 CALM      30.20F
YELLOWSTONE LA   N/A      8   5  87 N3        30.30F
IDAHO FALLS    FAIR      16  15  96 SW7       30.35F FOG     WCI   6
SALMON         CLOUDY    18  15  88 CALM      30.43F
BOISE          CLOUDY    22  20  92 SE3       30.46F FOG
SPOKANE        CLOUDY    25  23  92 N7        30.43F WCI  17
$$

REGIONAL REPORTS...ALBERTA

CITY           SKY/WX    TMP DP  RH WIND       PRES   REMARKS
EDMONTON       CLEAR     37  25  60 W12       30.13S WCI  30
CALGARY        MOCLDY    34  18  51 W3        30.20S
LETHBRIDGE     CLEAR     23  14  68 SW5       30.22R
MEDICINE HAT   CLEAR     28  23  80 SW9       30.20R WCI  20
$$

REGIONAL REPORTS...SASKATCHEWAN

CITY           SKY/WX    TMP DP  RH WIND       PRES   REMARKS
SWIFT CURRENT  MOCLDY    27  23  86 W16       30.07R WCI  14
REGINA         PTCLDY    30  27  86 NW14      29.95R WCI  20
SASKATOON      MOCLDY    30  27  86 NW17      30.03R WCI  18
$$




USA.gov is the U.S. government's official web portal to all federal, state and local government web resources and services.